Location: *
(45.1333°S, 169.6333°W)
Time: 19:37:14
(UTC+00:00)

CZ-2D R/B - Pass Details

Date: 26 May 2022
Orbit: 515 x 533 km, 97.4° (Epoch: 06 July)

Event Time Altitude Azimuth Distance (km) Brightness Sun altitude
Exits shadow 06:07:01 47° 203° (SSW) 711 3.9 -23.7°
Maximum altitude 06:07:51 61° 254° (WSW) 610 3.7 -23.8°
Drops below altitude 10° 06:11:37 10° 334° (NNW) 1,774 6.3 -24.5°
Sets 06:13:44 0° 338° (NNW) 2,658 7.2 -24.9°
